User: anonymous   Login
Location: Newark
(42.9277°N, 71.8621°W)
Time: 05:24:43
(UTC+00:00)
Language:

Tiros 1 despin weight - Orbit

View from above orbital plane
View from above orbital plane
View from above satellite
View from above satellite

Ground track
Ground track

The orbit data is extracted from the following two-line orbital elements,

1   115U 60002D   20147.90615850 -.00000074  00000-0  18300-4 0  9991
2   115  48.1679  17.8429 0034380 154.3763 205.8862 14.83577354209775
Epoch (UTC): 26 May 2020 21:44:52
Eccentricity: 0.0034380
inclination: 48.1679°
perigee height: 594 km
apogee height: 642 km
right ascension of ascending node: 17.8429°
argument of perigee: 154.3763°
revolutions per day: 14.83577354
mean anomaly at epoch: 205.8862°
orbit number at epoch: 20977

The dashed part of the orbit path shows where the satellite is in the earth's shadow,  

DLR